Weather History for Akron, CO

Change the Weather History Date:

Sunday, December 11, 2011

  Actual Average Record
Temperature  
Mean Temperature 31 °F 28 °F  
Max Temperature 45 °F 40 °F 73 °F (1939)
Min Temperature 17 °F 17 °F -12 °F (1972)
Degree Days  
Heating Degree Days 34    
Month to date heating degree days 471  
Cooling Degree Days 0    
Month to date cooling degree days 0  
Moisture  
Dew Point 19 °F    
Average Humidity 59    
Maximum Humidity 81    
Minimum Humidity 37    
Precipitation  
Precipitation 0.00 in 0.02 in 0.36 in (1965)
Month to date precipitation T 0.19  
Year to date precipitation 16.53  
Sea Level Pressure  
Sea Level Pressure 29.99 in    
Wind  
Wind Speed 9 mph (WSW)    
Max Wind Speed 14 mph    
Max Gust Speed 16 mph    
Visibility 10 miles    
Events      
T = Trace of Precipitation, MM = Missing Value Source: NWS Daily Summary

Daily Weather History Graph

Daily Weather History Graph

Search for Another Location

Airport:

Trip Planner

Search our weather history database for the weather conditions in past years. The results will help you decide how hot, cold, wet, or windy it might be!

Date:

Astronomy

Dec. 11, 2011 Rise Set
Actual Time 7:04 AM MST 4:27 PM MST
Civil Twilight 6:34 AM MST 4:57 PM MST
Nautical Twilight 6:00 AM MST 5:31 PM MST
Astronomical Twilight 5:27 AM MST 6:04 PM MST
Moon 5:39 PM MST (12/11) 7:55 AM MST (12/11)
Length of Visible Light 10h 23m
Length of Day
9h 22m
Full, 99% of the Moon is Illuminated
Dec 11
Full
Dec 17
Last Quarter
Dec 24
New
Dec 31
First Quarter
Jan 9
Full

Hourly Weather History & Observations

Time (MST) Temp. Windchill Dew Point Humidity Pressure Visibility Wind Dir Wind Speed Gust Speed Precip Events Conditions
12:53 AM 30.0 °F 21.1 °F 18.0 °F 61% 30.09 in 10.0 mi SSW 10.4 mph - N/A   Clear
1:53 AM 30.0 °F 20.5 °F 19.0 °F 64% 30.05 in 10.0 mi SSW 11.5 mph - N/A   Clear
2:53 AM 27.0 °F 18.0 °F 18.0 °F 69% 30.04 in 10.0 mi SW 9.2 mph - N/A   Clear
3:53 AM 24.1 °F 13.7 °F 16.0 °F 71% 30.04 in 10.0 mi SW 10.4 mph - N/A   Clear
4:53 AM 27.0 °F 16.1 °F 16.0 °F 63% 30.02 in 10.0 mi SW 12.7 mph - N/A   Clear
5:53 AM 21.0 °F 10.6 °F 15.1 °F 78% 30.04 in 10.0 mi SW 9.2 mph - N/A   Clear
6:53 AM 17.1 °F 7.6 °F 12.9 °F 84% 30.07 in 10.0 mi WSW 6.9 mph - N/A   Clear
8:53 AM 27.0 °F 16.7 °F 19.0 °F 72% 30.02 in 10.0 mi West 11.5 mph - N/A   Clear
9:53 AM 32.0 °F 22.5 °F 21.0 °F 64% 30.00 in 10.0 mi West 12.7 mph - N/A   Clear
10:53 AM 36.0 °F 28.5 °F 21.0 °F 55% 29.97 in 10.0 mi West 10.4 mph - N/A   Clear
11:53 AM 39.9 °F 35.1 °F 21.9 °F 49% 29.92 in 10.0 mi West 6.9 mph - N/A   Clear
12:53 PM 43.0 °F 39.5 °F 19.9 °F 40% 29.88 in 10.0 mi WNW 5.8 mph - N/A   Clear
1:53 PM 45.0 °F 41.2 °F 21.0 °F 39% 29.86 in 10.0 mi WNW 6.9 mph - N/A   Clear
2:53 PM 44.1 °F 41.5 °F 19.0 °F 37% 29.88 in 10.0 mi WNW 4.6 mph - N/A   Clear
3:53 PM 42.1 °F - 19.0 °F 40% 29.90 in 10.0 mi Calm Calm - N/A   Clear
4:53 PM 32.0 °F 28.7 °F 19.0 °F 59% 29.93 in 10.0 mi West 3.5 mph - N/A   Clear
5:53 PM 28.0 °F 19.3 °F 19.0 °F 69% 29.98 in 10.0 mi WSW 9.2 mph - N/A   Clear
6:53 PM 27.0 °F 18.7 °F 18.0 °F 69% 30.02 in 10.0 mi West 8.1 mph - N/A   Clear
7:53 PM 30.0 °F 22.4 °F 19.0 °F 64% 29.99 in 10.0 mi WNW 8.1 mph - N/A   Clear
8:53 PM 28.0 °F 17.5 °F 19.9 °F 72% 29.99 in 10.0 mi West 12.7 mph - N/A   Clear
10:53 PM 27.0 °F 18.0 °F 19.0 °F 72% 29.99 in 10.0 mi West 9.2 mph - N/A   Clear
11:53 PM 25.0 °F - 18.0 °F 75% 29.99 in 10.0 mi North - - N/A   Clear